Weather in Rozhdestvenskaya

Russia / Stavropol Krai     45°12′32″N   41°49′21″E
temp.,
°C
wind,
m/s
gust,
m/s
humid.,
%
clouds,
%
prec.,
mm/h
press.,
hPa
HPBL,
m
19 april, mon
mon1900:00+12ne1193100 0.1 101611
03:00+12ssw1191100 0.2 101510
06:00+11sw1195100 0.3 101515
09:00+14s2492100 2.1 1015251
12:00+16wnw1284100 0.4 1013384
15:00+16wnw3687100 2.2 1014577
18:00+14sse1195100 1.3 101469
21:00+13sse2294100 1.3 101547
20 april, tue
tue2000:00+13ese3694100 0.1 1012133
03:00+14se61486100 0.1 1009519
06:00+12ese61384100 0.1 1006339
09:00+16se5775100 0.2 1004265
12:00+20wnw5566100 0.1 1005853
15:00+19w6776100 0.4 1008960
18:00+15wsw4987100 1.8 1009697
21:00+12wsw6147795 2.3 1012734
21 april, wed
wed2100:00+9w61486100 0.1 1014685
03:00+9w51289100 0.6 1016691
06:00+8sw2889100 0.3 1017562
09:00+9wsw3485100 0.4 1018499
12:00+13w4670100 0.4 10191303
15:00+13sw3472100 1.3 1019804
18:00+12ssw34807 0.1 1020379
21:00+8s34875 0.1 102269
22 april, thu
thu2200:00+8s2285100 0.0 102126
03:00+8sw2286100 0.0 102116
06:00+8wsw1191100 0.0 102263
09:00+11w1179100 0.0 1023393
12:00+13ene107299 0.1 1023786
15:00+14sse447084 0.4 1023952
18:00+13s2477100 0.4 1023262
21:00+10s228597 0.5 102416
23 april, fri
fri2300:00+8s11870 0.0 102310
03:00+8ssw118718 0.0 102310
06:00+8s11875 0.0 102410
09:00+13w11705 0.0 1023541
12:00+16nw225625 0.1 10221461
15:00+18nnw334833 0.3 10212062
18:00+16n2261100 0.0 102141
21:00+12ese226498 0.0 102113